{"data":{"norad_id":63884,"intl_designator":"2025-094W","name":"STARLINK-33943","alt_names":[],"object_type":"PAYLOAD","status":"ACTIVE","operator":null,"country":"US","launch_date":"2025-05-10","launch_site_code":"AFWTR","launch_vehicle":null,"mission":null,"orbit_class":"UNKNOWN","rcs_meters":null,"size_class":null,"mass_kg":null,"dimensions":null,"purposes":["comms"],"wikipedia_slug":null,"has_3d_model":false,"image_url":null,"decayed_at":null,"tle_current":{"epoch":"2026-09-20T06:03:25.626816Z","epoch_age_seconds":168437,"freshness":"FRESH","line1":"1 63884U 25094W   26263.25237994  .00011512  00000+0  40421-3 0  9992","line2":"2 63884  69.9995 101.6316 0003048 268.3654  91.7172 15.29586105 76401","mean_motion":15.29586105,"eccentricity":0.0003048,"inclination_deg":69.9995,"raan_deg":101.6316,"arg_perigee_deg":268.3654,"mean_anomaly_deg":91.7172,"bstar":0.00040421,"rev_number":7640,"period_min":94.143114617271,"perigee_km":474.95920166782,"apogee_km":479.13812284753,"semimajor_km":6855.1856622577,"source":"CELESTRAK","updated_at":"2026-09-21T09:00:35.141199Z"}}}